Mojave, CA

1:11 AM PDT on August 19, 2017 (GMT -0700)
Mojave

Weather History for KMHV - October, 2012

Change the Weather History Date:

Saturday, October 20, 2012

  Actual Average Record
Temperature  
Mean Temperature 68 °F -  
Max Temperature 80 °F 77 °F 91 °F (2003)
Min Temperature 57 °F 48 °F 38 °F (1972)
Cooling Degree Days 4    
Growing Degree Days 18 (Base 50)    
Moisture  
Dew Point 42 °F    
Average Humidity 39    
Maximum Humidity 55    
Minimum Humidity 23    
Precipitation  
Precipitation 0.00 in - - ()
Sea Level Pressure  
Sea Level Pressure 29.83 in    
Wind  
Wind Speed 12 mph (West)    
Max Wind Speed 32 mph    
Max Gust Speed 38 mph    
Visibility 10 miles    
Events      
Averages and records for this station are not official NWS values.
T = Trace of Precipitation, MM = Missing Value Source: NWS Daily Summary

Daily Weather History Graph

Daily Weather History Graph

Search for Another Location

Airport or City:

Trip Planner

Search our weather history database for the weather conditions in past years. The results will help you decide how hot, cold, wet, or windy it might be!

Date:

Astronomy

Oct. 20, 2012 Rise Set
Actual Time 7:03 AM PDT 6:10 PM PDT
Civil Twilight 6:37 AM PDT 6:36 PM PDT
Nautical Twilight 6:08 AM PDT 7:05 PM PDT
Astronomical Twilight 5:38 AM PDT 7:35 PM PDT
Moon 12:36 PM PDT (10/20) 11:07 PM PDT (10/20)
Length of Visible Light 11h 58m
Length of Day
11h 07m
Waxing Crescent, 35% of the Moon is Illuminated
Oct 20
Waxing Crescent
Oct 21
First Quarter
Oct 29
Full
Nov 6
Last Quarter
Nov 13
New

Hourly Weather History & Observations

Time (PDT) Temp. Dew Point Humidity Pressure Visibility Wind Dir Wind Speed Gust Speed Precip Events Conditions
12:15 AM 68.0 °F 41.0 °F 37% 29.92 in 10.0 mi NW 9.2 mph - N/A   Clear
12:35 AM 68.0 °F 39.2 °F 35% 29.91 in 10.0 mi WNW 13.8 mph - N/A   Clear
12:55 AM 68.0 °F 37.4 °F 33% 29.91 in 10.0 mi NNW 10.4 mph - N/A   Clear
1:15 AM 68.0 °F 39.2 °F 35% 29.91 in 10.0 mi North 4.6 mph - N/A   Clear
1:55 AM 66.2 °F 39.2 °F 37% 29.90 in 10.0 mi NNW 11.5 mph - N/A   Clear
2:15 AM 68.0 °F 39.2 °F 35% 29.90 in 10.0 mi WNW 12.7 mph - N/A   Clear
2:55 AM 68.0 °F 37.4 °F 33% 29.88 in 10.0 mi WNW 9.2 mph - N/A   Clear
3:15 AM 68.0 °F 37.4 °F 33% 29.87 in 10.0 mi WNW 9.2 mph - N/A   Clear
3:35 AM 66.2 °F 37.4 °F 35% 29.87 in 10.0 mi North 3.5 mph - N/A   Clear
3:55 AM 59.0 °F 39.2 °F 48% 29.87 in 10.0 mi NNW 9.2 mph - N/A   Clear
4:15 AM 59.0 °F 39.2 °F 48% 29.87 in 10.0 mi NNW 8.1 mph - N/A   Clear
4:35 AM 59.0 °F 39.2 °F 48% 29.87 in 10.0 mi NNW 5.8 mph - N/A   Clear
4:55 AM 59.0 °F 39.2 °F 48% 29.87 in 10.0 mi Calm Calm - N/A   Clear
5:15 AM 59.0 °F 41.0 °F 51% 29.86 in 10.0 mi NNW 3.5 mph - N/A   Clear
5:35 AM 59.0 °F 41.0 °F 51% 29.86 in 10.0 mi Calm Calm - N/A   Clear
5:55 AM 59.0 °F 41.0 °F 51% 29.86 in 10.0 mi Calm Calm - N/A   Clear
6:15 AM 57.2 °F 41.0 °F 55% 29.86 in 10.0 mi WNW 4.6 mph - N/A   Clear
6:35 AM 59.0 °F 41.0 °F 51% 29.86 in 10.0 mi NW 5.8 mph - N/A   Clear
6:55 AM 62.6 °F 41.0 °F 45% 29.86 in 10.0 mi WNW 6.9 mph - N/A   Clear
7:15 AM 62.6 °F 42.8 °F 48% 29.86 in 10.0 mi North 6.9 mph - N/A   Clear
7:35 AM 62.6 °F 41.0 °F 45% 29.86 in 10.0 mi Calm Calm - N/A   Clear
7:55 AM 64.4 °F 42.8 °F 45% 29.86 in 10.0 mi Calm Calm - N/A   Clear
8:15 AM 64.4 °F 41.0 °F 42% 29.87 in 10.0 mi NE 4.6 mph - N/A   Clear
8:35 AM 66.2 °F 41.0 °F 40% 29.88 in 10.0 mi ENE 4.6 mph - N/A   Clear
9:15 AM 68.0 °F 41.0 °F 37% 29.88 in 10.0 mi NE 6.9 mph - N/A   Clear
9:35 AM 69.8 °F 41.0 °F 35% 29.88 in 10.0 mi Calm Calm - N/A   Clear
9:55 AM 71.6 °F 41.0 °F 33% 29.88 in 10.0 mi ENE 4.6 mph - N/A   Clear
10:15 AM 73.4 °F 44.6 °F 36% 29.88 in 10.0 mi West 13.8 mph 18.4 mph N/A   Clear
10:35 AM 75.2 °F 46.4 °F 36% 29.87 in 10.0 mi West 21.9 mph 26.5 mph N/A   Clear
10:55 AM 75.2 °F 46.4 °F 36% 29.86 in 10.0 mi West 21.9 mph 27.6 mph N/A   Clear
11:15 AM 77.0 °F 46.4 °F 34% 29.85 in 10.0 mi West 23.0 mph 28.8 mph N/A   Clear
11:35 AM 77.0 °F 44.6 °F 32% 29.85 in 10.0 mi West 21.9 mph 25.3 mph N/A   Clear
11:55 AM 78.8 °F 41.0 °F 26% 29.84 in 10.0 mi West 18.4 mph 24.2 mph N/A   Clear
12:15 PM 78.8 °F 41.0 °F 26% 29.84 in 10.0 mi WSW 23.0 mph 27.6 mph N/A   Clear
12:35 PM 80.6 °F 39.2 °F 23% 29.83 in 10.0 mi WSW 21.9 mph 27.6 mph N/A   Clear
12:55 PM 78.8 °F 41.0 °F 26% 29.82 in 10.0 mi West 23.0 mph 29.9 mph N/A   Clear
1:15 PM 80.6 °F 41.0 °F 24% 29.81 in 10.0 mi WSW 23.0 mph 28.8 mph N/A   Clear
1:35 PM 80.6 °F 42.8 °F 26% 29.80 in 10.0 mi WSW 21.9 mph 28.8 mph N/A   Clear
1:55 PM 80.6 °F 44.6 °F 28% 29.79 in 10.0 mi West 24.2 mph - N/A   Clear
2:15 PM 80.6 °F 44.6 °F 28% 29.79 in 10.0 mi West 24.2 mph 32.2 mph N/A   Clear
2:35 PM 78.8 °F 44.6 °F 30% 29.77 in 10.0 mi West 32.2 mph 36.8 mph N/A   Clear
2:55 PM 78.8 °F 42.8 °F 28% 29.77 in 10.0 mi West 31.1 mph 38.0 mph N/A   Clear
3:15 PM 77.0 °F 41.0 °F 28% 29.78 in 10.0 mi West 26.5 mph 36.8 mph N/A   Clear
3:35 PM 77.0 °F 41.0 °F 28% 29.78 in 10.0 mi West 24.2 mph 32.2 mph N/A   Clear
3:55 PM 77.0 °F 39.2 °F 26% 29.77 in 10.0 mi West 25.3 mph 31.1 mph N/A   Clear
4:15 PM 77.0 °F 41.0 °F 28% 29.77 in 10.0 mi West 15.0 mph 26.5 mph N/A   Clear
4:35 PM 75.2 °F 39.2 °F 27% 29.77 in 10.0 mi West 19.6 mph 34.5 mph N/A   Clear
4:55 PM 75.2 °F 39.2 °F 27% 29.77 in 10.0 mi WSW 16.1 mph 21.9 mph N/A   Clear
5:15 PM 73.4 °F 39.2 °F 29% 29.77 in 10.0 mi West 18.4 mph 28.8 mph N/A   Clear
5:35 PM 73.4 °F 39.2 °F 29% 29.77 in 10.0 mi West 13.8 mph 36.8 mph N/A   Clear
5:55 PM 71.6 °F 41.0 °F 33% 29.77 in 10.0 mi SW 8.1 mph 23.0 mph N/A   Clear
6:15 PM 69.8 °F 39.2 °F 33% 29.77 in 10.0 mi SW 19.6 mph 31.1 mph N/A   Clear
6:55 PM 68.0 °F 46.4 °F 46% 29.78 in 10.0 mi WSW 13.8 mph 33.4 mph N/A   Clear
7:15 PM 68.0 °F 48.2 °F 49% 29.78 in 10.0 mi SSW 17.3 mph 29.9 mph N/A   Clear
7:35 PM 68.0 °F 46.4 °F 46% 29.79 in 10.0 mi SW 11.5 mph 23.0 mph N/A   Clear
7:55 PM 66.2 °F 48.2 °F 52% 29.79 in 10.0 mi WSW 13.8 mph 25.3 mph N/A   Clear
8:15 PM 66.2 °F 48.2 °F 52% 29.80 in 10.0 mi West 4.6 mph 18.4 mph N/A   Clear
8:35 PM 66.2 °F 46.4 °F 49% 29.81 in 10.0 mi SW 8.1 mph 27.6 mph N/A   Unknown
8:55 PM 66.2 °F 48.2 °F 52% 29.81 in 10.0 mi South 11.5 mph 17.3 mph N/A   Clear
9:15 PM 66.2 °F 48.2 °F 52% 29.81 in 10.0 mi SW 8.1 mph - N/A   Clear
9:35 PM 66.2 °F 46.4 °F 49% 29.81 in 10.0 mi SSW 6.9 mph - N/A   Clear
9:55 PM 66.2 °F 44.6 °F 46% 29.81 in 10.0 mi West 11.5 mph 20.7 mph N/A   Clear
10:15 PM 66.2 °F 44.6 °F 46% 29.81 in 10.0 mi WSW 23.0 mph 38.0 mph N/A   Clear
10:35 PM 66.2 °F 42.8 °F 43% 29.80 in 10.0 mi West 24.2 mph 36.8 mph N/A   Clear
10:55 PM 66.2 °F 44.6 °F 46% 29.80 in 10.0 mi West 25.3 mph 36.8 mph N/A   Clear
11:15 PM 66.2 °F 44.6 °F 46% 29.80 in 10.0 mi West 23.0 mph - N/A   Clear
11:35 PM 66.2 °F 46.4 °F 49% 29.81 in 10.0 mi West 21.9 mph 28.8 mph N/A   Clear
11:55 PM 66.2 °F 46.4 °F 49% 29.80 in 10.0 mi WNW 17.3 mph 27.6 mph N/A   Clear